Temp
-8 -8 -9 -9 -9 -10 -10 -10 -10 -10 -10 -9 -10 -11 -11 -11 -11 -11 -11 -11 -11 -11 -11 -11 -11 -11 -12 -13 -14 -14 -15 -16 -17 -19 -20 -20 -19 -19 -19 -18 -18 -18 -18 -17
-8 -9 -9 -9 -9 -9 -9 -10 -10 -10 -11 -10 -11 -11 -11 -11 -11 -11 -12 -12 -12 -13 -13 -13 -14 -15 -16 -17 -19 -21 -21 -22 -22 -22 -21 -21 -21 -20 -20 -20 -20 -19 -19 -19
-8 -9 -9 -9 -9 -9 -10 -10 -10 -11 -11 -12 -11 -12 -12 -12 -12 -13 -13 -13 -14 -14 -15 -15 -15 -17 -19 -21 -22 -23 -23 -24 -23 -23 -23 -23 -24 -24 -23 -22 -22 -22 -21 -21
-9 -9 -9 -9 -9 -9 -10 -10 -11 -11 -12 -12 -12 -12 -12 -12 -13 -13 -13 -14 -14 -15 -15 -16 -18 -20 -22 -23 -24 -25 -25 -26 -25 -25 -25 -25 -25 -25 -25 -24 -23 -23 -23 -22
-9 -9 -10 -10 -10 -10 -10 -11 -11 -12 -12 -12 -12 -13 -13 -13 -14 -15 -16 -16 -16 -17 -19 -20 -22 -23 -24 -25 -26 -26 -25 -26 -26 -27 -27 -27 -26 -25 -25 -25 -25 -24 -24 -23
-10 -10 -10 -10 -11 -11 -11 -11 -12 -12 -12 -13 -13 -13 -13 -14 -16 -18 -18 -19 -21 -22 -23 -25 -25 -25 -26 -26 -26 -26 -27 -27 -28 -28 -28 -27 -27 -26 -26 -26 -26 -26 -26 -25
-10 -10 -10 -11 -11 -11 -11 -12 -12 -12 -13 -13 -13 -13 -14 -15 -16 -18 -19 -21 -23 -25 -25 -25 -26 -27 -27 -27 -27 -28 -28 -28 -28 -28 -27 -27 -27 -26 -26 -25 -25 -26 -26 -26
-10 -10 -11 -11 -11 -12 -12 -12 -14 -14 -13 -13 -13 -14 -15 -15 -19 -20 -21 -23 -25 -26 -26 -27 -28 -28 -28 -28 -28 -28 -29 -28 -28 -28 -28 -27 -26 -26 -25 -25 -25 -25 -26 -26
-11 -11 -11 -12 -12 -12 -13 -14 -14 -14 -14 -14 -14 -14 -15 -18 -16 -18 -21 -24 -26 -27 -28 -28 -29 -29 -29 -28 -28 -28 -28 -29 -28 -28 -28 -27 -26 -25 -25 -25 -25 -26 -26 -27
-10 -11 -11 -12 -12 -13 -13 -14 -14 -14 -15 -15 -15 -15 -16 -16 -17 -20 -23 -27 -28 -28 -28 -29 -29 -29 -29 -29 -29 -29 -29 -29 -28 -28 -28 -27 -26 -25 -25 -25 -26 -27 -27 -27
-12 -12 -12 -13 -13 -13 -14 -14 -15 -15 -16 -17 -17 -15 -20 -20 -23 -26 -28 -29 -29 -29 -29 -29 -29 -29 -29 -29 -29 -29 -29 -29 -29 -28 -28 -27 -26 -25 -25 -26 -27 -27 -27 -26
-12 -13 -13 -13 -13 -14 -15 -16 -16 -16 -16 -16 -17 -16 -20 -22 -25 -28 -30 -29 -29 -30 -29 -29 -29 -29 -29 -29 -29 -29 -29 -29 -29 -28 -27 -27 -26 -25 -25 -26 -27 -26 -26 -25
-12 -13 -14 -15 -15 -15 -16 -15 -15 -16 -16 -17 -19 -20 -23 -26 -27 -28 -29 -29 -30 -30 -30 -29 -29 -29 -29 -29 -29 -29 -29 -29 -28 -27 -27 -27 -25 -24 -25 -26 -26 -25 -25 -24
-13 -13 -14 -15 -16 -15 -16 -15 -15 -15 -16 -17 -19 -22 -24 -26 -27 -28 -29 -29 -30 -30 -30 -29 -29 -29 -29 -29 -29 -28 -28 -28 -27 -27 -27 -26 -24 -24 -25 -25 -25 -24 -24 -23
-13 -13 -15 -16 -16 -16 -16 -16 -15 -16 -18 -20 -21 -24 -27 -28 -29 -29 -30 -30 -30 -30 -30 -29 -29 -29 -29 -29 -28 -28 -28 -27 -26 -26 -27 -24 -24 -24 -24 -24 -24 -22 -22 -22
-13 -14 -15 -16 -16 -16 -16 -15 -16 -17 -19 -20 -24 -26 -27 -28 -30 -30 -30 -30 -30 -29 -29 -29 -29 -29 -29 -28 -28 -27 -26 -26 -26 -26 -24 -23 -24 -24 -24 -23 -22 -22 -21 -21
-14 -16 -16 -16 -16 -16 -16 -16 -17 -18 -23 -24 -26 -28 -28 -27 -29 -30 -30 -30 -29 -29 -29 -29 -29 -29 -28 -28 -27 -26 -26 -26 -26 -24 -23 -23 -23 -23 -22 -22 -21 -20 -20 -19
-15 -16 -16 -16 -16 -16 -16 -17 -17 -19 -25 -25 -27 -28 -29 -30 -30 -30 -30 -29 -29 -29 -29 -29 -28 -28 -27 -26 -26 -26 -26 -26 -24 -23 -23 -23 -22 -22 -21 -20 -20 -19 -19 -19
-16 -16 -16 -16 -16 -16 -16 -17 -19 -21 -24 -28 -28 -29 -30 -29 -30 -30 -30 -29 -29 -29 -29 -29 -28 -27 -26 -26 -26 -25 -25 -25 -23 -23 -23 -22 -21 -21 -20 -19 -19 -18 -18 -18
-16 -16 -16 -17 -17 -17 -17 -18 -21 -23 -26 -28 -29 -29 -29 -28 -28 -28 -28 -29 -29 -29 -29 -28 -27 -26 -26 -26 -26 -25 -25 -24 -23 -22 -22 -21 -21 -20 -19 -19 -19 -18 -18 -17
-17 -17 -17 -17 -17 -18 -18 -20 -21 -25 -27 -28 -29 -29 -29 -28 -28 -28 -29 -29 -29 -28 -27 -26 -27 -27 -26 -26 -26 -25 -24 -23 -22 -22 -22 -21 -21 -20 -19 -19 -18 -18 -17 -17
-17 -17 -17 -17 -18 -18 -19 -21 -24 -26 -28 -29 -29 -29 -28 -28 -28 -28 -29 -28 -28 -27 -26 -26 -26 -26 -27 -25 -24 -23 -23 -22 -22 -21 -21 -21 -20 -20 -19 -19 -18 -18 -17 -18
-17 -18 -18 -17 -18 -20 -21 -23 -26 -28 -28 -29 -29 -28 -28 -28 -28 -28 -28 -28 -27 -26 -26 -26 -26 -26 -26 -25 -23 -23 -22 -21 -21 -21 -21 -20 -20 -19 -18 -18 -18 -18 -18 -18
-18 -18 -17 -18 -19 -21 -22 -24 -28 -29 -28 -29 -29 -28 -28 -28 -28 -28 -27 -27 -27 -27 -27 -26 -26 -26 -25 -24 -23 -22 -21 -21 -20 -21 -21 -20 -19 -18 -18 -18 -18 -17 -18 -17
-18 -18 -18 -18 -19 -22 -25 -26 -27 -28 -28 -29 -29 -28 -28 -28 -28 -28 -27 -27 -26 -26 -27 -26 -26 -26 -24 -23 -22 -21 -21 -20 -20 -21 -20 -19 -19 -19 -19 -18 -17 -18 -17 -17
-18 -18 -18 -19 -20 -22 -23 -26 -28 -28 -28 -28 -28 -28 -28 -28 -28 -27 -27 -26 -26 -26 -26 -26 -25 -25 -23 -23 -22 -21 -21 -20 -20 -20 -19 -19 -19 -18 -18 -18 -17 -17 -17 -17
Height
5869 5867 5864 5862 5860 5857 5854 5852 5848 5844 5838 5835 5829 5823 5816 5810 5802 5793 5784 5775 5766 5757 5749 5740 5732 5722 5712 5700 5690 5682 5675 5668 5662 5653 5647 5641 5636 5632 5631 5629 5629 5630 5633 5637
5866 5863 5861 5858 5855 5853 5849 5845 5841 5838 5832 5826 5820 5812 5802 5794 5785 5778 5768 5759 5749 5739 5727 5715 5702 5692 5682 5671 5662 5652 5644 5638 5628 5623 5620 5614 5608 5607 5603 5602 5601 5600 5602 5606
5864 5861 5857 5855 5852 5848 5844 5839 5834 5827 5821 5814 5809 5797 5785 5773 5765 5757 5748 5738 5727 5716 5703 5692 5682 5670 5659 5651 5642 5633 5623 5613 5604 5596 5593 5590 5585 5582 5578 5577 5575 5576 5576 5580
5860 5857 5854 5851 5847 5843 5837 5832 5826 5818 5812 5806 5794 5785 5770 5760 5756 5744 5733 5722 5708 5694 5681 5669 5658 5649 5641 5633 5624 5612 5600 5592 5584 5578 5574 5571 5568 5566 5561 5556 5557 5556 5554 5556
5857 5852 5849 5845 5839 5834 5830 5824 5817 5810 5800 5793 5782 5770 5758 5748 5733 5721 5707 5694 5681 5669 5658 5650 5641 5635 5631 5620 5608 5598 5589 5581 5573 5566 5560 5556 5553 5550 5546 5542 5539 5539 5537 5536
5852 5850 5844 5837 5832 5827 5822 5815 5809 5800 5791 5784 5775 5762 5751 5731 5712 5699 5686 5670 5656 5645 5637 5627 5620 5614 5608 5602 5590 5583 5577 5570 5563 5556 5549 5544 5539 5536 5533 5530 5527 5524 5523 5521
5848 5844 5838 5829 5825 5817 5811 5804 5797 5790 5781 5776 5764 5750 5731 5714 5701 5684 5666 5654 5641 5630 5621 5612 5601 5595 5590 5585 5578 5572 5566 5561 5555 5548 5541 5533 5528 5525 5522 5519 5516 5514 5512 5509
5843 5839 5832 5823 5816 5807 5798 5790 5782 5771 5766 5763 5759 5742 5725 5707 5686 5661 5648 5637 5625 5614 5604 5597 5589 5583 5578 5573 5567 5562 5557 5552 5547 5540 5532 5524 5518 5513 5510 5507 5504 5502 5500 5498
5833 5829 5822 5814 5806 5798 5788 5779 5769 5759 5752 5742 5738 5725 5709 5697 5677 5659 5642 5628 5616 5607 5594 5588 5583 5577 5570 5564 5559 5553 5548 5542 5536 5529 5522 5514 5509 5504 5500 5496 5493 5491 5489 5486
5826 5820 5813 5805 5795 5785 5778 5767 5757 5747 5730 5721 5726 5713 5686 5667 5652 5637 5622 5606 5598 5592 5584 5577 5573 5569 5563 5557 5551 5546 5541 5534 5526 5519 5511 5504 5500 5496 5491 5487 5483 5480 5478 5478
5816 5810 5804 5794 5785 5777 5768 5758 5745 5737 5724 5702 5680 5682 5662 5641 5625 5608 5599 5591 5585 5580 5575 5569 5564 5560 5556 5550 5543 5538 5533 5526 5517 5509 5502 5495 5491 5487 5483 5480 5476 5474 5473 5473
5810 5801 5793 5786 5776 5767 5756 5743 5736 5722 5712 5700 5674 5663 5639 5624 5611 5598 5586 5577 5572 5570 5566 5561 5557 5553 5548 5542 5536 5530 5524 5516 5507 5499 5493 5487 5483 5480 5476 5473 5471 5469 5469 5469
5801 5792 5784 5774 5768 5758 5749 5737 5725 5710 5692 5675 5653 5638 5623 5609 5599 5588 5575 5569 5564 5562 5559 5555 5551 5546 5540 5535 5529 5523 5514 5505 5497 5490 5484 5479 5475 5472 5469 5467 5465 5464 5465 5464
5792 5782 5776 5766 5760 5749 5740 5727 5713 5696 5677 5662 5645 5623 5610 5598 5585 5577 5569 5563 5558 5555 5552 5548 5544 5540 5534 5528 5521 5513 5505 5497 5488 5481 5474 5469 5468 5467 5464 5463 5462 5461 5461 5459
5785 5777 5768 5758 5749 5738 5725 5711 5698 5682 5665 5644 5629 5612 5596 5585 5574 5567 5562 5558 5553 5551 5548 5544 5539 5534 5528 5521 5513 5504 5497 5488 5480 5472 5466 5463 5465 5463 5462 5461 5460 5459 5460 5461
5778 5767 5759 5750 5741 5726 5716 5703 5687 5669 5651 5635 5619 5607 5597 5582 5571 5567 5562 5558 5553 5549 5544 5540 5534 5528 5520 5512 5503 5496 5490 5483 5475 5467 5463 5464 5464 5462 5462 5461 5461 5462 5462 5464
5767 5758 5751 5741 5731 5720 5707 5695 5677 5657 5639 5620 5605 5596 5584 5579 5571 5565 5562 5557 5552 5546 5540 5534 5527 5519 5512 5503 5496 5492 5486 5479 5472 5467 5467 5466 5466 5465 5463 5464 5464 5464 5466 5469
5759 5749 5741 5732 5722 5711 5695 5681 5667 5649 5632 5615 5603 5592 5582 5577 5572 5566 5561 5553 5549 5543 5536 5529 5520 5512 5503 5497 5493 5489 5483 5477 5472 5472 5471 5470 5468 5468 5468 5467 5468 5470 5472 5474
5750 5739 5730 5721 5712 5703 5686 5672 5655 5637 5627 5609 5601 5593 5587 5582 5577 5570 5562 5556 5548 5541 5533 5522 5513 5505 5499 5495 5492 5487 5482 5478 5476 5476 5475 5474 5474 5474 5473 5474 5476 5476 5477 5478
5740 5732 5721 5710 5701 5688 5675 5662 5646 5632 5627 5607 5598 5593 5586 5581 5577 5572 5565 5557 5548 5538 5527 5516 5509 5502 5497 5493 5489 5484 5480 5480 5480 5480 5480 5480 5479 5480 5480 5481 5482 5482 5483 5482
5732 5723 5711 5700 5689 5679 5663 5647 5637 5626 5613 5603 5597 5591 5586 5580 5574 5567 5559 5552 5543 5532 5522 5515 5507 5499 5494 5488 5483 5480 5480 5482 5485 5486 5487 5486 5486 5487 5488 5489 5489 5490 5491 5492
5724 5715 5705 5692 5680 5670 5653 5644 5631 5619 5609 5600 5597 5591 5587 5583 5576 5568 5559 5549 5539 5529 5521 5515 5507 5500 5493 5484 5480 5482 5485 5488 5491 5494 5494 5494 5495 5496 5498 5499 5500 5501 5501 5501
5717 5710 5700 5690 5673 5657 5643 5630 5620 5611 5606 5601 5597 5592 5587 5582 5576 5566 5556 5546 5536 5526 5518 5512 5507 5501 5494 5488 5486 5490 5494 5497 5499 5501 5501 5502 5504 5507 5507 5508 5509 5511 5512 5517
5710 5701 5692 5682 5665 5649 5640 5630 5616 5610 5606 5601 5596 5591 5587 5581 5573 5566 5554 5544 5536 5527 5519 5512 5507 5502 5496 5493 5495 5499 5502 5505 5508 5509 5510 5512 5513 5515 5517 5519 5520 5520 5525 5529
5702 5693 5683 5671 5660 5646 5630 5623 5617 5612 5606 5601 5597 5591 5587 5581 5574 5563 5553 5543 5537 5529 5520 5513 5508 5505 5502 5503 5505 5508 5512 5515 5517 5518 5518 5519 5521 5523 5525 5527 5531 5532 5537 5542
5695 5687 5677 5665 5652 5640 5632 5623 5616 5611 5605 5601 5597 5593 5588 5581 5573 5563 5553 5545 5538 5531 5523 5516 5511 5508 5509 5512 5514 5518 5521 5523 5526 5527 5527 5529 5531 5533 5535 5539 5541 5544 5548 5552
Wind_Speed
19 19 20 20 21 24 26 29 32 32 37 40 42 45 44 48 56 62 69 74 78 81 81 84 86 89 89 90 93 94 90 90 90 87 89 91 90 85 82 82 78 79 80 83
19 22 23 26 28 31 32 33 35 36 39 44 42 46 52 59 65 70 74 77 82 84 89 89 91 90 89 88 87 85 85 85 90 89 84 78 75 74 73 72 73 74 74 77
25 25 27 29 32 32 33 36 39 43 44 43 47 56 61 70 72 77 84 85 88 88 89 92 92 91 87 84 81 83 86 85 83 81 73 66 61 62 62 62 62 63 64 65
24 26 28 31 35 38 41 40 41 41 43 47 56 61 69 72 78 82 86 88 90 92 94 94 91 88 86 81 82 83 79 78 71 65 60 56 54 50 51 54 54 55 58 61
25 28 31 34 38 42 43 44 41 44 47 53 62 67 71 84 86 87 88 92 94 94 91 85 81 79 76 80 75 70 63 59 57 53 45 46 47 45 43 44 47 48 52 55
27 30 32 38 41 47 49 51 53 56 59 61 65 69 79 84 84 85 89 88 87 83 79 77 77 79 77 75 62 52 48 43 42 45 46 45 42 39 34 35 38 37 38 44
30 32 37 44 46 51 55 59 61 62 62 58 63 72 83 87 85 89 88 83 79 78 80 80 79 78 72 55 45 39 35 36 38 41 43 44 42 39 32 32 34 34 34 36
39 44 45 50 52 56 60 61 60 59 59 61 65 75 83 87 85 85 82 81 77 72 74 75 68 59 45 41 39 37 36 36 38 39 42 41 40 38 33 33 32 31 32 36
45 46 49 51 54 58 59 59 61 63 65 70 73 81 84 78 86 89 83 74 64 53 55 55 44 46 37 36 36 36 36 39 41 44 43 37 37 35 33 33 28 28 32 31
46 49 51 54 58 59 59 60 62 66 75 78 74 84 85 93 91 84 76 65 52 42 40 39 38 35 36 35 34 33 35 41 45 47 42 34 33 33 33 29 25 24 21 19
47 49 54 57 58 60 60 62 67 70 76 82 89 89 83 87 82 74 63 55 45 36 32 38 41 36 35 36 35 36 39 44 49 50 40 32 29 29 29 24 20 14 13 12
52 53 55 58 60 60 60 64 72 77 78 81 89 93 88 84 74 62 58 54 47 30 36 38 37 35 35 36 35 38 43 48 53 48 37 33 27 25 23 18 15 12 8 11
55 58 55 56 57 59 62 73 75 79 84 87 88 90 82 72 63 53 50 41 37 27 32 32 34 34 38 36 37 42 49 54 55 39 34 32 24 22 18 12 10 12 12 15
55 58 57 57 58 63 69 71 77 83 86 89 86 85 76 67 52 44 37 33 28 31 33 31 33 35 36 36 41 48 53 55 40 36 35 24 17 17 11 8 11 13 14 8
57 59 56 57 60 65 71 75 81 82 85 83 83 76 67 55 43 33 30 28 27 20 25 31 33 34 35 41 48 54 52 35 34 34 25 8 10 13 5 8 12 6 15 12
59 58 58 59 61 68 71 79 81 83 81 82 73 64 53 47 35 25 22 23 23 25 29 32 33 35 42 48 53 43 28 29 32 23 7 5 7 2 5 4 8 10 11 7
58 56 58 59 65 67 75 77 79 83 74 70 63 57 50 42 30 19 19 23 28 31 33 34 40 46 50 51 38 23 27 30 24 8 10 9 5 7 13 15 17 20 19 17
58 56 56 64 65 69 74 77 81 80 62 60 54 48 39 33 18 24 28 34 35 34 39 44 49 51 47 33 26 23 29 28 9 12 13 11 12 17 18 23 24 18 16 14
57 56 61 66 67 69 75 77 78 75 59 51 41 31 26 22 14 21 29 31 35 40 44 50 52 44 33 24 24 26 26 17 11 16 14 16 21 23 28 29 27 25 27 26
56 58 63 66 69 73 76 76 73 64 49 35 27 25 27 29 23 23 27 34 41 46 49 44 37 33 30 26 28 27 16 7 18 16 19 24 24 28 35 36 27 24 34 31
56 60 62 67 70 72 75 77 70 56 46 25 24 26 30 31 34 39 42 44 46 43 36 36 37 31 30 30 25 10 6 18 22 22 27 25 25 29 34 33 30 26 34 32
57 59 62 68 72 73 75 69 62 50 33 24 23 28 25 28 33 39 43 45 42 36 35 31 28 28 30 26 8 11 22 27 24 29 26 26 26 26 32 30 35 33 36 38
57 59 61 67 71 72 73 66 55 44 27 20 24 23 25 31 37 44 46 40 37 33 33 25 23 30 24 17 14 22 32 29 30 28 26 24 25 29 37 36 36 37 45 43
57 59 63 65 69 69 66 59 44 35 19 21 26 27 30 35 41 44 41 36 29 30 30 23 20 21 12 16 24 34 33 33 29 28 26 25 28 34 24 33 38 50 55 49
56 59 61 64 67 64 56 50 36 25 17 22 25 26 31 36 40 42 38 35 30 32 29 25 19 22 22 27 33 36 36 31 29 30 26 28 29 20 25 38 52 50 44 46
56 58 60 63 65 64 58 45 29 17 16 21 20 21 29 36 39 41 34 33 34 29 28 19 16 24 29 29 36 36 34 31 32 31 24 33 32 30 45 54 49 45 39 43
Wind_Direction
334 334 339 339 338 338 334 330 325 322 317 314 312 309 306 305 308 308 311 316 318 317 315 314 312 312 310 306 302 298 293 290 287 287 287 286 283 281 278 275 271 267 262 257
330 333 337 337 336 330 327 323 318 316 313 310 311 306 307 311 314 317 318 317 317 316 315 313 311 309 303 301 300 300 297 294 291 291 291 287 282 279 276 273 271 267 263 259
335 334 332 331 327 324 321 318 316 314 312 311 311 317 323 325 323 321 319 317 316 314 312 309 304 301 300 299 301 297 296 295 295 295 293 290 286 283 279 275 270 266 262 258
334 332 327 325 324 321 318 315 314 313 311 317 324 328 326 323 320 318 316 315 312 311 307 305 302 300 300 300 299 299 300 299 298 295 293 290 288 282 277 273 269 266 264 259
330 329 326 319 316 316 312 308 309 311 314 320 329 325 322 322 319 320 319 316 310 306 304 300 294 292 294 297 299 298 299 296 292 292 294 295 290 286 281 279 274 269 264 261
327 322 317 313 312 314 314 312 310 310 310 316 323 326 324 322 322 320 315 309 304 301 298 294 294 297 298 300 304 299 293 293 298 302 304 302 298 294 285 280 278 277 273 267
325 323 315 312 315 315 315 313 313 313 316 322 326 326 324 323 320 315 308 304 301 295 294 296 297 301 304 307 299 291 295 297 301 304 305 301 298 297 291 286 279 278 275 273
327 327 325 321 320 316 314 316 318 319 318 319 326 326 323 321 317 309 304 303 304 300 297 298 304 311 311 304 300 297 300 306 309 310 309 298 298 299 297 292 287 280 273 276
327 327 325 322 322 318 317 316 317 316 320 323 325 324 317 316 310 311 309 305 304 302 300 301 310 310 309 308 304 300 305 309 312 315 314 299 295 299 297 297 292 284 280 277
324 326 325 324 322 318 318 317 318 325 327 323 322 319 317 317 315 313 313 313 312 308 307 302 314 311 307 308 304 303 306 311 315 319 315 302 296 296 296 297 291 286 283 278
326 327 326 324 321 320 320 319 322 324 325 321 320 323 320 319 317 321 319 314 306 299 310 297 315 316 313 308 305 305 310 314 316 320 314 304 295 294 295 294 286 280 275 273
326 324 326 324 322 320 323 324 324 327 322 323 322 323 320 321 322 319 310 309 305 289 299 310 314 311 316 309 305 308 312 317 318 320 312 305 294 295 295 287 274 277 259 245
326 327 326 323 323 324 325 325 329 324 326 325 321 322 322 320 319 320 314 309 307 290 306 306 312 310 313 311 310 313 317 319 319 317 309 309 292 292 295 272 273 277 258 264
328 329 326 323 325 324 328 329 329 328 323 324 323 320 321 324 326 327 321 312 297 284 310 314 313 311 312 313 314 316 318 318 316 314 317 311 282 303 294 272 281 292 286 232
331 327 325 325 328 328 330 331 330 327 326 324 324 323 328 327 329 334 330 338 341 319 320 320 316 316 316 316 318 319 321 322 321 325 326 310 301 309 276 311 312 110 131 134
329 325 327 328 330 332 331 330 329 326 325 325 323 322 327 330 336 327 335 345 339 334 327 320 320 320 320 321 321 327 332 333 332 332 24 17 345 341 338 100 106 115 132 126
326 325 328 331 331 332 329 329 327 325 330 325 323 331 338 337 341 327 335 342 338 333 333 332 326 323 323 323 329 342 337 337 342 37 62 64 61 71 99 105 100 91 86 89
324 326 330 331 332 331 330 329 328 328 330 325 331 336 344 350 355 336 342 339 339 339 335 328 323 325 328 330 340 334 339 346 26 70 82 71 85 103 96 86 82 83 89 106
325 328 331 331 332 330 328 329 327 327 335 333 337 349 360 6 360 338 332 334 338 332 327 326 325 329 333 338 344 334 335 353 78 93 78 92 102 95 91 93 90 89 77 78
327 330 332 332 331 329 330 329 327 330 337 330 350 358 359 356 4 358 346 338 336 334 330 329 334 335 334 334 329 331 337 61 105 91 97 101 96 91 84 66 47 71 76 85
329 330 332 330 329 329 330 328 330 332 336 351 0 357 354 352 351 348 344 342 338 340 342 341 337 336 339 335 333 338 81 118 106 99 99 92 86 83 78 68 66 78 85 87
328 329 331 331 330 330 330 331 327 335 346 356 354 348 354 347 347 343 345 344 346 347 337 346 2 357 348 349 42 109 118 112 104 102 98 99 93 91 83 74 79 84 86 90
326 329 332 334 330 329 330 330 332 339 347 350 348 351 350 349 346 348 346 351 353 347 352 352 349 13 352 24 84 114 111 106 106 105 101 103 97 87 86 84 95 99 99 100
327 330 333 335 330 329 329 331 332 333 344 347 346 347 348 347 348 347 354 356 355 355 3 358 354 353 16 81 110 111 107 110 107 100 98 100 101 90 85 95 104 109 109 105
325 331 331 329 331 332 328 327 332 330 336 343 342 340 345 346 348 351 358 354 350 350 350 357 350 13 85 106 109 108 112 109 101 97 94 94 88 74 95 114 117 109 111 112
327 331 331 329 329 330 330 329 332 318 330 338 337 345 345 346 351 355 359 358 1 8 6 18 59 76 107 111 113 115 113 109 101 103 98 94 87 94 117 116 115 116 113 121